Time,TemperatureF,DewpointF,PressureIn,WindDirection,WindDirectionDegrees,WindSpeedMPH,WindSpeedGustMPH,Humidity,HourlyPrecipIn,Conditions,Clouds,dailyrainin,SoftwareType,DateUTC
2015-01-30 00:00:00,47.9,38.9,30.25,WNW,286,2.0,2.0,71,0.00,,,0.00,Wunderground v.1.15,2015-01-30 06:00:00,
2015-01-30 00:09:00,47.7,39.1,30.25,NW,314,1.0,2.0,72,0.00,,,0.00,Wunderground v.1.15,2015-01-30 06:09:00,
2015-01-30 00:15:00,47.6,38.7,30.25,WSW,246,1.0,4.0,71,0.00,,,0.00,Wunderground v.1.15,2015-01-30 06:15:00,
2015-01-30 00:25:00,47.4,38.8,30.25,SSE,160,2.0,2.0,72,0.00,,,0.00,Wunderground v.1.15,2015-01-30 06:25:00,
2015-01-30 00:35:00,47.3,38.7,30.26,WSW,249,1.0,1.0,72,0.00,,,0.00,Wunderground v.1.15,2015-01-30 06:35:00,
2015-01-30 00:45:00,47.1,38.5,30.26,SSW,206,1.0,2.0,72,0.00,,,0.00,Wunderground v.1.15,2015-01-30 06:45:00,
2015-01-30 00:55:00,46.7,37.4,30.27,SSW,206,2.0,2.0,70,0.00,,,0.00,Wunderground v.1.15,2015-01-30 06:55:00,
2015-01-30 01:04:00,46.2,37.0,30.27,West,260,2.0,4.0,70,0.00,,,0.00,Wunderground v.1.15,2015-01-30 07:04:00,
2015-01-30 01:14:00,45.9,36.3,30.27,SSE,148,2.0,3.0,69,0.00,,,0.00,Wunderground v.1.15,2015-01-30 07:14:00,
2015-01-30 01:24:00,45.5,36.6,30.28,SSE,148,2.0,3.0,71,0.00,,,0.00,Wunderground v.1.15,2015-01-30 07:24:00,
2015-01-30 01:34:00,45.3,36.1,30.28,SW,225,1.0,3.0,70,0.00,,,0.00,Wunderground v.1.15,2015-01-30 07:34:00,
2015-01-30 01:44:00,44.6,35.1,30.28,SE,145,3.0,3.0,69,0.00,,,0.00,Wunderground v.1.15,2015-01-30 07:44:00,
2015-01-30 01:54:00,44.1,34.2,30.29,East,91,2.0,4.0,68,0.00,,,0.00,Wunderground v.1.15,2015-01-30 07:54:00,
2015-01-30 02:04:00,43.9,34.0,30.30,SSW,203,2.0,4.0,68,0.00,,,0.00,Wunderground v.1.15,2015-01-30 08:04:00,
2015-01-30 02:14:00,43.7,33.8,30.29,SE,145,2.0,3.0,68,0.00,,,0.00,Wunderground v.1.15,2015-01-30 08:14:00,
2015-01-30 02:24:00,43.6,33.7,30.29,East,89,2.0,5.0,68,0.00,,,0.00,Wunderground v.1.15,2015-01-30 08:24:00,
2015-01-30 02:34:00,43.5,33.6,30.29,ESE,105,2.0,3.0,68,0.00,,,0.00,Wunderground v.1.15,2015-01-30 08:34:00,
2015-01-30 02:40:00,43.4,33.9,30.29,SE,143,2.0,2.0,69,0.00,,,0.00,Wunderground v.1.15,2015-01-30 08:40:00,
2015-01-30 02:50:00,43.2,33.7,30.29,West,276,1.0,1.0,69,0.00,,,0.00,Wunderground v.1.15,2015-01-30 08:50:00,
2015-01-30 03:00:00,43.2,33.7,30.29,SW,226,1.0,1.0,69,0.00,,,0.00,Wunderground v.1.15,2015-01-30 09:00:00,
2015-01-30 03:05:00,43.1,34.0,30.29,West,277,1.0,1.0,70,0.00,,,0.00,Wunderground v.1.15,2015-01-30 09:05:00,
2015-01-30 03:15:00,42.8,33.7,30.29,NNE,15,0.0,1.0,70,0.00,,,0.00,Wunderground v.1.15,2015-01-30 09:15:00,
2015-01-30 03:25:00,42.5,33.8,30.29,SW,233,0.0,0.0,71,0.00,,,0.00,Wunderground v.1.15,2015-01-30 09:25:00,
2015-01-30 03:35:00,42.3,33.2,30.30,South,179,1.0,4.0,70,0.00,,,0.00,Wunderground v.1.15,2015-01-30 09:35:00,
2015-01-30 03:45:00,42.3,33.2,30.30,South,170,1.0,2.0,70,0.00,,,0.00,Wunderground v.1.15,2015-01-30 09:45:00,
2015-01-30 03:55:00,42.3,33.2,30.30,SE,143,1.0,2.0,70,0.00,,,0.00,Wunderground v.1.15,2015-01-30 09:55:00,
2015-01-30 04:05:00,42.2,33.1,30.29,West,276,1.0,1.0,70,0.00,,,0.00,Wunderground v.1.15,2015-01-30 10:05:00,
2015-01-30 04:15:00,41.9,32.8,30.29,SSE,158,0.0,2.0,70,0.00,,,0.00,Wunderground v.1.15,2015-01-30 10:15:00,
2015-01-30 04:25:00,41.7,32.6,30.30,SSE,158,2.0,2.0,70,0.00,,,0.00,Wunderground v.1.15,2015-01-30 10:25:00,
2015-01-30 04:35:00,41.4,32.3,30.30,East,99,1.0,2.0,70,0.00,,,0.00,Wunderground v.1.15,2015-01-30 10:35:00,
2015-01-30 04:45:00,41.2,32.5,30.30,South,186,1.0,1.0,71,0.00,,,0.00,Wunderground v.1.15,2015-01-30 10:45:00,
2015-01-30 04:55:00,41.1,32.4,30.30,SSE,152,1.0,1.0,71,0.00,,,0.00,Wunderground v.1.15,2015-01-30 10:55:00,
2015-01-30 05:04:00,40.9,32.2,30.30,West,271,0.0,1.0,71,0.00,,,0.00,Wunderground v.1.15,2015-01-30 11:04:00,
2015-01-30 05:14:00,40.7,32.0,30.31,SSW,211,1.0,2.0,71,0.00,,,0.00,Wunderground v.1.15,2015-01-30 11:14:00,
2015-01-30 05:24:00,40.6,31.9,30.32,SSW,197,0.0,1.0,71,0.00,,,0.00,Wunderground v.1.15,2015-01-30 11:24:00,
2015-01-30 05:34:00,40.5,32.2,30.32,SSE,155,0.0,0.0,72,0.00,,,0.00,Wunderground v.1.15,2015-01-30 11:34:00,
2015-01-30 05:44:00,40.3,32.0,30.33,SSE,153,0.0,1.0,72,0.00,,,0.00,Wunderground v.1.15,2015-01-30 11:44:00,
2015-01-30 05:50:00,40.3,31.6,30.33,SSE,148,1.0,1.0,71,0.00,,,0.00,Wunderground v.1.15,2015-01-30 11:50:00,
2015-01-30 06:00:00,40.1,31.4,30.33,SE,138,1.0,1.0,71,0.00,,,0.00,Wunderground v.1.15,2015-01-30 12:00:00,
2015-01-30 06:10:00,40.0,31.7,30.34,ESE,115,0.0,1.0,72,0.00,,,0.00,Wunderground v.1.15,2015-01-30 12:10:00,
2015-01-30 06:20:00,39.7,31.4,30.35,SE,135,0.0,0.0,72,0.00,,,0.00,Wunderground v.1.15,2015-01-30 12:20:00,
2015-01-30 06:30:00,39.6,31.3,30.35,NNE,19,0.0,0.0,72,0.00,,,0.00,Wunderground v.1.15,2015-01-30 12:30:00,
2015-01-30 06:35:00,39.5,31.2,30.35,SSW,205,1.0,1.0,72,0.00,,,0.00,Wunderground v.1.15,2015-01-30 12:35:00,
2015-01-30 06:45:00,39.6,31.0,30.35,SW,226,0.0,3.0,71,0.00,,,0.00,Wunderground v.1.15,2015-01-30 12:45:00,
2015-01-30 06:55:00,39.4,31.1,30.36,SE,136,0.0,1.0,72,0.00,,,0.00,Wunderground v.1.15,2015-01-30 12:55:00,
2015-01-30 07:05:00,39.3,31.0,30.35,SSE,163,1.0,1.0,72,0.00,,,0.00,Wunderground v.1.15,2015-01-30 13:05:00,
2015-01-30 07:14:00,39.4,31.1,30.36,NNE,13,0.0,1.0,72,0.00,,,0.00,Wunderground v.1.15,2015-01-30 13:14:00,
2015-01-30 07:24:00,39.6,31.3,30.36,SSW,193,1.0,1.0,72,0.00,,,0.00,Wunderground v.1.15,2015-01-30 13:24:00,
2015-01-30 07:34:00,39.9,31.3,30.36,SSE,161,1.0,1.0,71,0.00,,,0.00,Wunderground v.1.15,2015-01-30 13:34:00,
2015-01-30 07:44:00,40.4,31.4,30.36,SSE,148,1.0,1.0,70,0.00,,,0.00,Wunderground v.1.15,2015-01-30 13:44:00,
2015-01-30 07:54:00,40.7,31.7,30.36,West,259,1.0,1.0,70,0.00,,,0.00,Wunderground v.1.15,2015-01-30 13:54:00,
2015-01-30 08:04:00,41.0,31.6,30.37,ESE,115,1.0,3.0,69,0.00,,,0.00,Wunderground v.1.15,2015-01-30 14:04:00,
2015-01-30 08:14:00,41.3,31.5,30.37,SSW,198,1.0,2.0,68,0.00,,,0.00,Wunderground v.1.15,2015-01-30 14:14:00,
2015-01-30 08:24:00,41.7,31.5,30.37,SW,232,1.0,1.0,67,0.00,,,0.00,Wunderground v.1.15,2015-01-30 14:24:00,
2015-01-30 08:34:00,42.2,32.0,30.38,SSE,165,2.0,5.0,67,0.00,,,0.00,Wunderground v.1.15,2015-01-30 14:34:00,
2015-01-30 08:40:00,42.5,31.9,30.38,East,101,2.0,2.0,66,0.00,,,0.00,Wunderground v.1.15,2015-01-30 14:40:00,
2015-01-30 08:49:00,43.0,32.0,30.38,SE,142,1.0,1.0,65,0.00,,,0.00,Wunderground v.1.15,2015-01-30 14:49:00,
2015-01-30 08:54:00,43.2,31.8,30.38,SE,133,1.0,2.0,64,0.00,,,0.00,Wunderground v.1.15,2015-01-30 14:54:00,
2015-01-30 09:04:00,43.5,31.7,30.38,South,181,3.0,6.0,63,0.00,,,0.00,Wunderground v.1.15,2015-01-30 15:04:00,
2015-01-30 09:10:00,43.8,32.0,30.38,ESE,110,2.0,3.0,63,0.00,,,0.00,Wunderground v.1.15,2015-01-30 15:10:00,
2015-01-30 09:20:00,44.2,32.0,30.39,SW,235,2.0,2.0,62,0.00,,,0.00,Wunderground v.1.15,2015-01-30 15:20:00,
2015-01-30 09:25:00,44.4,32.2,30.39,SE,127,2.0,2.0,62,0.00,,,0.00,Wunderground v.1.15,2015-01-30 15:25:00,
2015-01-30 09:35:00,44.8,32.2,30.39,SSE,162,2.0,6.0,61,0.00,,,0.00,Wunderground v.1.15,2015-01-30 15:35:00,
2015-01-30 09:45:00,45.3,32.6,30.39,NW,323,3.0,3.0,61,0.00,,,0.00,Wunderground v.1.15,2015-01-30 15:45:00,
2015-01-30 09:55:00,46.1,33.0,30.40,WNW,300,3.0,3.0,60,0.00,,,0.00,Wunderground v.1.15,2015-01-30 15:55:00,
2015-01-30 10:04:00,46.9,32.4,30.40,South,174,1.0,3.0,57,0.00,,,0.00,Wunderground v.1.15,2015-01-30 16:04:00,
2015-01-30 10:14:00,47.3,33.3,30.40,SSW,199,1.0,3.0,58,0.00,,,0.00,Wunderground v.1.15,2015-01-30 16:14:00,
2015-01-30 10:24:00,47.8,33.7,30.40,SSW,210,2.0,2.0,58,0.00,,,0.00,Wunderground v.1.15,2015-01-30 16:24:00,
2015-01-30 10:34:00,48.4,33.4,30.40,West,280,1.0,1.0,56,0.00,,,0.00,Wunderground v.1.15,2015-01-30 16:34:00,
2015-01-30 10:44:00,48.4,33.9,30.40,East,89,1.0,2.0,57,0.00,,,0.00,Wunderground v.1.15,2015-01-30 16:44:00,
2015-01-30 10:54:00,48.8,33.8,30.39,ENE,74,2.0,3.0,56,0.00,,,0.00,Wunderground v.1.15,2015-01-30 16:54:00,
2015-01-30 11:04:00,49.6,34.1,30.39,SSW,203,1.0,1.0,55,0.00,,,0.00,Wunderground v.1.15,2015-01-30 17:04:00,
2015-01-30 11:14:00,49.7,32.8,30.39,West,262,1.0,5.0,52,0.00,,,0.00,Wunderground v.1.15,2015-01-30 17:14:00,
2015-01-30 11:24:00,49.9,32.0,30.39,NNW,330,3.0,3.0,50,0.00,,,0.00,Wunderground v.1.15,2015-01-30 17:24:00,
2015-01-30 11:30:00,50.0,33.1,30.39,East,101,2.0,2.0,52,0.00,,,0.00,Wunderground v.1.15,2015-01-30 17:30:00,
2015-01-30 11:40:00,50.5,33.0,30.38,ESE,114,1.0,1.0,51,0.00,,,0.00,Wunderground v.1.15,2015-01-30 17:40:00,
2015-01-30 11:50:00,50.3,31.3,30.37,SE,125,3.0,3.0,48,0.00,,,0.00,Wunderground v.1.15,2015-01-30 17:50:00,
2015-01-30 12:00:00,50.5,32.5,30.37,SSW,204,2.0,3.0,50,0.00,,,0.00,Wunderground v.1.15,2015-01-30 18:00:00,
2015-01-30 12:10:00,50.9,31.9,30.36,ESE,117,1.0,1.0,48,0.00,,,0.00,Wunderground v.1.15,2015-01-30 18:10:00,
2015-01-30 12:15:00,51.2,32.7,30.36,SE,128,1.0,1.0,49,0.00,,,0.00,Wunderground v.1.15,2015-01-30 18:15:00,
2015-01-30 12:25:00,51.3,32.3,30.36,SSE,150,1.0,2.0,48,0.00,,,0.00,Wunderground v.1.15,2015-01-30 18:25:00,
2015-01-30 12:35:00,51.4,32.3,30.36,ESE,123,1.0,3.0,48,0.00,,,0.00,Wunderground v.1.15,2015-01-30 18:35:00,
2015-01-30 12:45:00,52.3,32.1,30.35,SSE,158,1.0,2.0,46,0.00,,,0.00,Wunderground v.1.15,2015-01-30 18:45:00,
2015-01-30 12:55:00,52.3,32.1,30.35,SW,224,1.0,1.0,46,0.00,,,0.00,Wunderground v.1.15,2015-01-30 18:55:00,
2015-01-30 13:05:00,52.9,31.6,30.34,SW,219,1.0,2.0,44,0.00,,,0.00,Wunderground v.1.15,2015-01-30 19:05:00,
2015-01-30 13:15:00,53.4,33.1,30.34,South,174,1.0,1.0,46,0.00,,,0.00,Wunderground v.1.15,2015-01-30 19:15:00,
2015-01-30 13:25:00,53.8,31.8,30.34,SSE,156,2.0,2.0,43,0.00,,,0.00,Wunderground v.1.15,2015-01-30 19:25:00,
2015-01-30 13:34:00,53.7,30.5,30.33,SE,131,1.0,4.0,41,0.00,,,0.00,Wunderground v.1.15,2015-01-30 19:34:00,
2015-01-30 13:44:00,54.1,32.1,30.33,East,94,2.0,6.0,43,0.00,,,0.00,Wunderground v.1.15,2015-01-30 19:44:00,
2015-01-30 13:50:00,54.7,33.2,30.33,ESE,110,1.0,2.0,44,0.00,,,0.00,Wunderground v.1.15,2015-01-30 19:50:00,
2015-01-30 13:59:00,55.0,31.1,30.33,ENE,67,2.0,5.0,40,0.00,,,0.00,Wunderground v.1.15,2015-01-30 19:59:00,
2015-01-30 14:04:00,54.7,32.0,30.33,SW,219,3.0,5.0,42,0.00,,,0.00,Wunderground v.1.15,2015-01-30 20:04:00,
2015-01-30 14:14:00,55.6,32.8,30.33,WNW,283,1.0,2.0,42,0.00,,,0.00,Wunderground v.1.15,2015-01-30 20:14:00,
2015-01-30 14:24:00,56.2,32.8,30.33,SSW,212,1.0,1.0,41,0.00,,,0.00,Wunderground v.1.15,2015-01-30 20:24:00,
2015-01-30 14:34:00,56.1,31.5,30.33,West,276,1.0,4.0,39,0.00,,,0.00,Wunderground v.1.15,2015-01-30 20:34:00,
2015-01-30 14:40:00,55.4,30.2,30.33,East,99,1.0,1.0,38,0.00,,,0.00,Wunderground v.1.15,2015-01-30 20:40:00,
2015-01-30 14:50:00,55.6,31.0,30.33,ESE,120,1.0,1.0,39,0.00,,,0.00,Wunderground v.1.15,2015-01-30 20:50:00,
2015-01-30 15:00:00,55.1,30.6,30.33,East,96,1.0,2.0,39,0.00,,,0.00,Wunderground v.1.15,2015-01-30 21:00:00,
2015-01-30 15:05:00,54.5,29.4,30.33,SE,131,1.0,2.0,38,0.00,,,0.00,Wunderground v.1.15,2015-01-30 21:05:00,